This demonstration page uses our WeatherBlox Daily Observations layout. Learn more.

Left ArrowRight Arrow

53.62937, 11.41316

Hourly Observations for April 5, 2022

Temp ( °F °C ) Dew Point ( °F °C ) Humidity (%) Winds ( mph kmh ) Pressure ( in mb ) Visibility ( mi km ) Precip ( " mm )
12:20 am 00:20 Mostly Clear 41 5 36 2 81 81 W 15 24 29.41 996 30 48 N/A
12:50 am 00:50 Mostly Clear 41 5 36 2 81 81 W 13 20 29.44 997 30 48 N/A
1:20 am 01:20 Mostly Clear 41 5 34 1 76 76 W 13 20 29.44 997 30 48 N/A
1:50 am 01:50 Mostly Clear 41 5 36 2 81 81 W 12 19 29.44 997 30 48 N/A
2:20 am 02:20 Partly Cloudy 41 5 34 1 76 76 W 13 20 29.44 997 30 48 N/A
2:50 am 02:50 Partly Cloudy 39 4 34 1 81 81 W 9 15 29.44 997 30 48 N/A
3:20 am 03:20 Partly Cloudy 39 4 34 1 81 81 W 10 17 29.44 997 30 48 N/A
3:50 am 03:50 Mostly Cloudy 39 4 34 1 81 81 W 13 20 29.47 998 30 48 N/A
4:20 am 04:20 Mostly Cloudy 39 4 34 1 81 81 W 12 19 29.47 998 30 48 N/A
4:50 am 04:50 Mostly Clear 39 4 34 1 81 81 W 12 19 29.47 998 30 48 N/A
5:20 am 05:20 Mostly Clear 39 4 34 1 81 81 W 10 17 29.47 998 30 48 N/A
5:50 am 05:50 Mostly Clear 39 4 34 1 81 81 W 10 17 29.47 998 30 48 N/A
6:20 am 06:20 Mostly Clear 39 4 34 1 81 81 W 9 15 29.50 999 30 48 N/A
6:50 am 06:50 Mostly Sunny 37 3 32 0 81 81 W 12 19 29.50 999 30 48 N/A
7:20 am 07:20 Mostly Sunny 37 3 32 0 81 81 W 9 15 29.53 1000 30 48 N/A
7:50 am 07:50 Mostly Sunny 37 3 32 0 81 81 W 7 11 29.53 1000 30 48 N/A
8:20 am 08:20 Mostly Sunny 39 4 34 1 81 81 WSW 9 15 29.53 1000 30 48 N/A
8:50 am 08:50 Mostly Sunny 41 5 34 1 76 76 W 9 15 29.56 1001 7 11 N/A
9:20 am 09:20 Mostly Sunny 41 5 34 1 76 76 W 10 17 29.56 1001 30 48 N/A
9:50 am 09:50 Mostly Sunny 43 6 34 1 71 71 W 12 19 29.56 1001 30 48 N/A
10:20 am 10:20 Partly Cloudy 43 6 32 0 66 66 W 15 24 29.56 1001 30 48 N/A
10:50 am 10:50 Mostly Cloudy 45 7 32 0 61 61 W 14 22 29.56 1001 30 48 N/A
11:20 am 11:20 Mostly Cloudy 45 7 32 0 61 61 W 9 15 29.56 1001 30 48 N/A
11:50 am 11:50 Mostly Cloudy with Light Rain 41 5 36 2 81 81 W 13 20 29.56 1001 30 48 N/A
12:20 pm 12:20 Partly Cloudy 45 7 37 3 76 76 WSW 9 15 29.56 1001 30 48 N/A
12:50 pm 12:50 Partly Cloudy with Showers Nearby 45 7 36 2 71 71 W 10 17 29.56 1001 30 48 N/A
1:20 pm 13:20 Partly Cloudy with Light Showers 43 6 36 2 76 76 NW 10 17 29.56 1001 30 48 N/A
1:50 pm 13:50 Mostly Cloudy with Showers Nearby 43 6 37 3 81 81 WNW 8 13 29.56 1001 30 48 N/A
2:20 pm 14:20 Mostly Cloudy with Light Showers 45 7 37 3 76 76 WNW 9 15 29.56 1001 30 48 N/A
2:50 pm 14:50 Mostly Cloudy with Light Showers 45 7 36 2 71 71 W 10 17 29.56 1001 30 48 N/A
3:20 pm 15:20 Mostly Cloudy with Light Showers 45 7 36 2 71 71 W 13 20 29.56 1001 30 48 N/A
3:50 pm 15:50 Mostly Cloudy with Light Showers 43 6 37 3 81 81 W 10 17 29.56 1001 30 48 N/A
4:20 pm 16:20 Mostly Cloudy with Light Rain 43 6 37 3 81 81 W 12 19 29.56 1001 30 48 N/A
4:50 pm 16:50 Mostly Cloudy with Light Rain 43 6 37 3 81 81 W 8 13 29.56 1001 30 48 N/A
5:20 pm 17:20 Mostly Cloudy with Light Rain 43 6 39 4 87 87 W 6 9 29.56 1001 30 48 N/A
5:50 pm 17:50 Mostly Cloudy with Light Rain 43 6 39 4 87 87 WSW 6 9 29.53 1000 30 48 N/A
6:20 pm 18:20 Mostly Cloudy with Light Rain 43 6 39 4 87 87 WSW 8 13 29.53 1000 30 48 N/A
6:50 pm 18:50 Mostly Cloudy with Light Rain 41 5 39 4 93 93 WSW 7 11 29.53 1000 30 48 N/A
7:20 pm 19:20 Mostly Cloudy with Light Rain 41 5 39 4 93 93 WSW 7 11 29.53 1000 30 48 N/A
7:50 pm 19:50 Mostly Cloudy with Light Rain 41 5 39 4 93 93 WSW 5 7 29.53 1000 30 48 N/A
8:20 pm 20:20 Mostly Cloudy with Light Rain 41 5 37 3 87 87 W 6 9 29.53 1000 30 48 N/A
8:50 pm 20:50 Mostly Cloudy with Light Rain 41 5 39 4 93 93 WSW 5 7 29.53 1000 30 48 N/A
9:20 pm 21:20 Mostly Cloudy 41 5 37 3 87 87 SW 3 6 29.53 1000 30 48 N/A
9:50 pm 21:50 Partly Cloudy 39 4 39 4 100 100 VRB 2 4 29.53 1000 30 48 N/A
10:20 pm 22:20 Mostly Clear 41 5 39 4 93 93 WSW 3 6 29.53 1000 30 48 N/A
10:50 pm 22:50 Mostly Clear 39 4 39 4 100 100 VRB 2 4 29.53 1000 30 48 N/A
11:20 pm 23:20 Partly Cloudy 39 4 39 4 100 100 VRB 1 2 29.53 1000 30 48 N/A
11:50 pm 23:50 Mostly Cloudy 39 4 39 4 100 100 VRB 2 4 29.50 999 30 48 N/A

Powered by AerisWeather